www.pogodaiklimat.ru

Погода и климат >> Архив погоды >> Россия >> Кировская область >> Киров


АРХИВ ПОГОДЫ в Кирове

Время (UTC), дата Ветер
(напр.,м/с)
 
Видим.   Явления Облачность Т
(С)
Тd
(С)
f
(%)
Тe
(С)
Тes
(С)
Комфортность P
(гПа)
Po
(гПа)
Тmin
(С)
Tmax
(С)
R
(мм)
R24
(мм)
S
(см)
15 8.08 СЗ 2-4
{9}
20 км 9/6 600 м
[Sc Ac trans Ci fib]
+15.6 +9.7 68 +16 +16 прохладно 1012.0 993.2 +17.0
18 8.08 С 3-6
{7}
20 км 8/0
[Ac trans Ci sp]
+12.9 +8.2 73 +12 +12 прохладно 1014.2 995.3
21 8.08 С 2-5
{6}
20 км 9/5 600 м
[Sc Ac trans]
+12.0 +9.2 83 +11 +11 прохладно 1015.0 996.1
00 9.08 СЗ 2-4
{6}
20 км 10/0
[Ac As]
+11.4 +9.4 88 +10 +10 прохладно 1016.0 997.0
03 9.08 СЗ 2-3
{6}
20 км 10/0
[Ac As]
+11.4 +9.0 85 +10 +11 холодно 1018.0 998.9 +11.2
06 9.08 СЗ 1-3
{5}
20 км 10/8 600 м
[Sc Ac und]
+12.8 +9.0 78 +13 +14 прохладно 1019.5 1000.5
09 9.08 СЗ 2-5
{7}
20 км 10/10 600 м
[Cb calv]
+15.2 +7.3 59 +15 +15 прохладно 1019.9 1001.0
12 9.08 СЗ 2-6
{8}
20 км 8/6 600 м
[Cb calv Ac trans]
+16.1 +6.8 54 +16 +18 холодно 1020.4 1001.6
15 9.08 СЗ 1-2
{6}
20 км 8/5 600 м
[Cb calv Ac trans]
+16.1 +7.7 57 +17 +17 по сезону 1021.0 1002.2 +17.0
18 9.08 З 1-1
{3}
20 км 3/3 600 м
[Sc diur, vesp]
+13.2 +9.5 78 +13 +13 прохладно 1022.2 1003.1
21 9.08 СЗ 1-3
{4}
20 км ясно +11.6 +9.4 86 +11 +11 прохладно 1022.8 1003.6
00 10.08 З 1-1
{3}
20 км ясно +9.0 +8.4 96 +8 +8 холодно 1023.2 1003.8
03 10.08 З 2-3
{4}
20 км ясно +12.2 +8.4 78 +11 +13 прохладно 1023.0 1003.9 +7.9
06 10.08 З 2-6
{7}
20 км 9/4 600 м
[Sc Ac trans Ci sp]
+17.9 +10.0 60 +18 +21 по сезону 1021.8 1003.1
09 10.08 З 2-5
{8}
20 км 10/6 600 м
[Sc Ac und Ci sp]
+20.3 +12.7 62 +23 +25 комфорт 1019.7 1001.2
12 10.08 З 3-8
{9}
20 км 9/3 600 м
[Sc Ac trans Ci fib]
+22.6 +14.5 60 +26 +28 жарко 998.4
15 10.08 З 3-7
{9}
20 км 9/0
[Ac trans Ci sp]
+24.2 +15.4 58 +27 +28 жарко 1014.7 996.6 +24.6
18 10.08 З 3-5
{7}
20 км 8/0
[Ac trans Ci fib]
+21.2 +16.3 74 +25 +25 комфорт 1014.9 996.6
21 10.08 З 2-5
{6}
20 км 3/0
[Ci fib]
+20.0 +15.9 77 +23 +23 комфорт 1014.7 996.3
00 11.08 З 2-5
{6}
20 км 9/0
[Ac trans Ci]
+19.4 +15.9 80 +22 +22 комфорт 1014.7 996.3
03 11.08 З 2-5
{5}
20 км 9/4 600 м
[Sc Ac trans Ci fib]
+18.8 +16.6 87 +21 +21 комфорт 1015.2 996.7 +18.3
06 11.08 З 2-4
{5}
20 км 10/8 600 м
[Cb calv Ac trans Ci fib]
+21.4 +17.2 77 +25 +26 комфорт 1015.2 996.9
09 11.08 З 2-6
{7}
20 км 6/1 600 м
[Cu hum Ci fib]
+25.3 +15.4 54 +28 +37 жарко 1014.0 996.0
12 11.08 СЗ 2-5
{7}
10 км слабый ливневой дождь 10/9 600 м
[Cb cap Ci fib]
+25.1 +16.9 60 +29 +29 душно 1013.2 995.2
15 11.08 З 2-4
{6}
20 км {ливн. осадки} 9/5 600 м
[Cb calv Ac lent Ci fib]
+26.2 +17.8 60 +31 +31 очень
душно
1012.1 994.1 +27.2 0.0
18 11.08 З 2-4
{4}
20 км {ливн. осадки} 4/3 600 м
[Cb calv Ac lent]
+21.9 +18.1 79 +27 +27 душно 1012.5 994.2
21 11.08 З 2-4
{4}
20 км ясно +19.7 +15.5 77 +22 +22 комфорт 1012.8 994.4
00 12.08 З 1-3
{4}
20 км 6/0
[Ac lent Ci fib]
+16.6 +15.1 91 +17 +17 тепло 1012.7 994.0
03 12.08 З 1-3
{4}
20 км 3/0
[Ci fib]
+17.2 +15.0 87 +18 +20 тепло 1012.7 994.1 +15.0
06 12.08 ЮЗ 2-4
{5}
20 км ясно +21.9 +15.9 69 +26 +33 душно 1011.8 993.5
09 12.08 ЮЗ 3-7
{8}
20 км 3/3 1000 м
[Cu med, cong]
+25.4 +15.1 53 +28 +35 жарко 1010.9 992.9
12 12.08 ЮЗ 2-5
{7}
20 км 4/4 1000 м
[Cu med, cong]
+27.0 +15.6 50 +30 +34 душно 1010.2 992.3
15 12.08 ЮЗ 2-4
{8}
20 км ясно +25.6 +15.9 55 +29 +29 душно 1009.2 991.3 +27.2
18 12.08 ЮЗ 1-2
{4}
20 км 1/0
[Ci fib]
+19.9 +16.3 80 +23 +23 комфорт 1009.0 990.7
21 12.08 ЮЗ 1-3
{3}
20 км ясно +17.4 +14.8 85 +18 +18 тепло 1008.1 989.6
00 13.08 ЮЗ 1-3
{4}
20 км 3/0
[Ac trans]
+16.4 +13.9 85 +17 +17 тепло 1007.1 988.5
03 13.08 ЮЗ 2-4
{4}
20 км 8/0
[Ci fib]
+17.5 +14.8 84 +18 +19 тепло 1006.0 987.5 +15.1
06 13.08 ЮЗ 2-5
{5}
20 км 6/0
[Ci]
+22.8 +15.7 64 +27 +34 душно 1004.6 986.5
09 13.08 ЮЗ 3-9
{9}
20 км 9/6 600 м
[Cu med, cong Ac trans Ci]
+24.2 +12.6 48 +26 +28 жарко 1004.4 986.4
12 13.08 З 4-12
{13}
20 км 6/5 600 м
[Cu med, cong Ci fib]
+23.6 +9.9 42 +25 +27 комфорт 1004.4 986.3
15 13.08 З 2-5
{12}
20 км 3/3 600 м
[Cu med, cong]
+22.2 +9.2 43 +24 +24 комфорт 1004.2 986.1 +24.5
18 13.08 З 1-1
{6}
20 км 3/3 600 м
[Sc diur, vesp]
+16.8 +11.1 69 +18 +18 тепло 1005.2 986.7
21 13.08 З 1-2
{3}
20 км ясно +13.6 +9.9 78 +14 +14 по сезону 1005.8 987.1
00 14.08 ЮЗ 1-2
{3}
20 км 4/4 600 м
[Sc]
+11.0 +8.5 85 +11 +11 по сезону 1006.6 987.7
03 14.08 ЮЗ 1-4
{4}
20 км 3/3 600 м
[Sc diur, vesp]
+13.0 +10.3 84 +13 +14 по сезону 1007.5 988.7 +10.9
06 14.08 З 3-6
{7}
20 км 8/8 600 м
[Cb calv]
+15.8 +11.3 75 +15 +17 по сезону 1008.2 989.6
09 14.08 З 3-7
{8}
20 км 8/8 600 м
[Cb calv]
+17.9 +11.1 64 +18 +20 по сезону 1009.0 990.5
12 14.08 З 3-6
{8}
20 км 8/6 600 м
[Cb calv Ac trans]
+20.0 +10.2 53 +22 +23 комфорт 1008.8 990.5
15 14.08 З 1-3
{7}
20 км {ливн. осадки} 6/6 600 м
[Cb calv]
+18.9 +10.4 58 +21 +21 комфорт 1009.7 991.3 +20.7 0.1
18 14.08 З 1-3
{5}
20 км {ливн. осадки} 3/3 600 м
[Sc]
+14.0 +11.5 85 +14 +14 по сезону 1011.8 993.0
21 14.08 З 1-2
{4}
20 км ясно +11.8 +10.9 94 +12 +12 по сезону 1012.6 993.7
00 15.08 З 1-2
{2}
20 км ясно +9.6 +9.2 97 +9 +9 прохладно 1013.4 994.3
03 15.08 З 2-3
{4}
20 км 1/1 600 м
[Sc]
+11.9 +10.7 92 +11 +12 прохладно 1014.2 995.3 +8.9 0.3
06 15.08 З 2-4
{5}
20 км 8/1 600 м
[Cu hum Ci fib]
+16.9 +11.3 70 +17 +23 тепло 1015.0 996.3
09 15.08 З 2-5
{7}
20 км 10/9 600 м
[Cb calv Ci fib]
+19.3 +10.0 55 +21 +22 комфорт 1014.6 996.1

 

Местоположение метеостанции Киров (Кировская область, Россия): широта 58.60 долгота 49.63 высота над уровнем моря 158 м.

В архиве по умолчанию представлена погода в Кирове за последнюю неделю. Архивные данные за месяц целиком и за предыдущие месяцы, начиная с января 2011 года, Вы можете получить, выбрав интересующий диапазон дат из раскрывающегося списка и нажав кнопку "Ввод!".


*Определитесь, кто Вы:
робот инопланетянин человек

Внимание! Время в таблицах - всемирное. Для получения местного времени необходимо прибавить поправку, которая в Кирове равна 3 ч.

Смотрите также архив погоды в соседних городах и на ближайших метеорологических станциях:

Погода в Кумене (Кировская область, Россия) (58 км)
Погода в Белой Холунице (Кировская область, Россия) (75 км)
Погода в Котельниче (Кировская область, Россия) (82 км)
Погода в Даровском (Кировская область, Россия) (98 км)
Погода в Нагорске (Кировская область, Россия) (106 км)
Погода в Фаленках (Кировская область, Россия) (116 км)
Погода в Нолинске (Кировская область, Россия) (118 км)
Погода в Унях (Кировская область, Россия) (145 км)
Погода в Шабалино (Кировская область, Россия) (150 км)
Погода в Опарино (Кировская область, Россия) (159 км)

Пояснения к столбцам:

Ветер - указаны скорость ветра в м/с - средняя за 10 мин, порывы в срок и между сроками (в фигурных скобках) и направление, откуда дует ветер: С - северный, СВ - северо-восточный, В - восточный, ЮВ - юго-восточный, Ю - южный, ЮЗ - юго-западный, З - западный, СЗ - северо-западный.
Видимость - горизонтальная дальность видимости в метрах или километрах. При видимости от 1 до 10 км при отсутствии осадков обычно наблюдается дымка, при ухудшении видимости до 1 км и менее - туман. В сухую погоду видимость может ухудшаться дымом, пылью или мглою.
Явления - указаны атмосферные явления, наблюдавшиеся в срок или в последний час перед сроком; фигурными скобками обозначены явления, наблюдавшиеся между сроками (за 1-3 часа до срока); квадратными скобками обозначены град или гололедные отложения с указанием их диаметра в мм.
Облачность - указаны через наклонную черту общая и нижняя облачность в баллах и высота нижней границы облаков в метрах; квадратными скобками обозначены формы облаков: Ci - перистые, Cs - перисто-слоистые, Cc - перисто-кучевые, Ac - высококучевые, As - высокослоистые, Sc - слоисто-кучевые, Ns - слоисто-дождевые, Cu - кучевые, Cb - кучево-дождевые. Подробнее классификацию облаков см. в Атласе облаков (PDF).
T - Температура воздуха - температура, измеренная на высоте 2 м над землей.
Td - Температура точки росы - температура, при понижении до которой содержащийся в воздухе водяной пар достигнет насыщения.
f - Относительная влажность воздуха - влажноcть воздуха, измеренная на высоте 2 м над землей.
Te - Эффективная температура - температура, которую ощущает одетый по сезону человек в тени. Характеристика душности погоды. При расчете учитывается влияние влажности воздуха и скорости ветра на теплоощущения человека.
Tes - Эффективная температура на солнце - температура, которую ощущает человек, с поправкой на солнечный нагрев. Характеристика знойности погоды. Зависит от высоты солнца над горизонтом, облачности и скорости ветра. Ночью, в пасмурную погоду, а также при ветре 12 м/с и более поправка равна нулю.
P - Атмосферное давление - приведенное к уровню моря атмосферное давление.
Po - Атмосферное давление - измеренное на уровне метеостанции атмосферное давление.
Tmin - Минимальная температура - минимум температуры воздуха на высоте 2 м над землей.
Tmax - Максимальная температура - максимум температуры воздуха на высоте 2 м над землей.
R - Количество осадков - Количество выпавших осадков за период времени, мм. При наведении курсора мыши на число - период времени, за который выпало указанное количество осадков.
R24 - Количество осадков - Количество выпавших осадков за 24 часа, мм.
S - Снежный покров - Высота снежного покрова, см. При наведении курсора мыши на число - состояние снежного покрова и степень покрытия местности в баллах.